Tracking 17631 objects as of 5-May-2016
HD Live streaming from Space Station
objects crossing your sky now

COSMOS 2251 DEB

Track COSMOS 2251 DEB now!
10-day predictions


NORAD ID: 34131
Int'l Code: 1993-036LC
Perigee: 701.6 km
Apogee: 717.2 km
Inclination: 74.1 °
Period: 98.8 minutes
Semi major axis: 7080 km
RCS: 0.018 m2 (small)
Launch date: June 16, 1993
Source: Commonwealth of Independent States (former USSR) (CIS)
Launch site: PLESETSK MISSILE AND SPACE COMPLEX (PKMTR)

Note: This is SATELLITE DEBRIS
Your satellite tracking list
Your tracking list is empty





NASA's NSSDC Master Catalog

Two Line Element Set (TLE):
1 34131U 93036LC  16125.61335015 +.00003776 +00000-0 +84152-3 0  9998
2 34131 074.1227 190.8393 0011061 322.0252 160.5416 14.57193147380045
Source of the keplerian elements: AFSPC

N2YO: 347